Погода в Мурыгине

Россия / Кировская область     58°44′14″N   49°27′41″E
темп.,
°C
ветер,
м/с
пор.,
м/с
влажн.,
%
обл.,
%
осадки,
мм/ч
давл.,
гПа
погр.,
м
16 января, вс
вс1600:00−14ссз3894100 0.0 987279
03:00−14ссз3994100 0.1 989318
06:00−13сз399494 0.1 990326
09:00−12ссз4129390 0.1 992475
12:00−8ссз41088100 0.1 994907
15:00−10ссз41189100 0.1 996607
18:00−10сз4109197 0.1 997482
21:00−16зсз279855 0.1 998107
17 января, пн
пн1700:00−19юз2210094 0.0 99839
03:00−15ююз3997100 0.0 997190
06:00−10ююз41294100 0.3 994534
09:00−8ююз51293100 0.9 992563
12:00−7ююз51390100 0.1 992646
15:00−7ююз51292100 0.3 992604
18:00−7ююз51490100 0.1 992648
21:00−7ююз61493100 0.3 992757
18 января, вт
вт1800:00−6ююз51394100 1.1 993793
03:00−6ю51294100 1.6 994720
06:00−6ю41293100 0.4 995613
09:00−5ю41195100 0.9 997606
12:00−4ю41095100 0.7 999565
15:00−3ю3996100 1.3 1000515
18:00−3ю3997100 0.6 1002425
21:00−3ю2698100 1.4 1004201
19 января, ср
ср1900:00−3ю1398100 0.6 100694
03:00−5юз0198100 1.0 100810
06:00−7ссз119895 0.3 100925
09:00−10с119896 0.4 101216
12:00−5юз139684 0.1 1013147
15:00−3ююз2896100 0.4 1014527
18:00−4ююз399591 0.2 1016407
21:00−5ююз4109386 0.3 1017545
20 января, чт
чт2000:00−9ю3119682 0.1 1018316
03:00−12ю3109766 0.1 1019240
06:00−12ююз3129579 0.0 1020348
09:00−13ююз3129677 0.0 1021298
12:00−10ююз4129113 0.0 1021399
15:00−10ююз311905 0.0 1021383
18:00−13ю3119522 0.0 1022242
21:00−15ю299859 0.0 1022133